Lorain / Elyria, OH

3:08 AM EDT on May 26, 2018 (GMT -0400)
Lorain County Regional

Weather History for KLPR - December, 2013

Change the Weather History Date:

Saturday, December 7, 2013

  Actual Average (WUND) Record (WUND)
Temperature  
Mean Temperature 23 °F -  
Max Temperature 28 °F - - (-1)
Min Temperature 18 °F - - (-1)
Degree Days  
Heating Degree Days 42    
Moisture  
Dew Point 15 °F    
Average Humidity 66    
Maximum Humidity 78    
Minimum Humidity 58    
Precipitation  
Precipitation 0.00 in - - ()
Sea Level Pressure  
Sea Level Pressure 30.52 in    
Wind  
Wind Speed 8 mph (WNW)    
Max Wind Speed 14 mph    
Max Gust Speed 21 mph    
Visibility 10 miles    
Events      
Averages and records for this station are not official NWS values.
T = Trace of Precipitation, MM = Missing Value Source: NWS Daily Summary

Daily Weather History Graph

Daily Weather History Graph

Search for Another Location

Airport or City:

Astronomy

Dec. 07, 2013 Rise Set
Actual Time 7:41 AM EST 4:59 PM EST
Civil Twilight 7:10 AM EST 5:30 PM EST
Nautical Twilight 6:35 AM EST 6:04 PM EST
Astronomical Twilight 6:02 AM EST 6:38 PM EST
Moon 11:23 AM EST (12/7) 10:42 PM EST (12/7)
Length of Visible Light 10h 20m
Length of Day
9h 17m
Waxing Crescent, 29% of the Moon is Illuminated
Dec 7
Waxing Crescent
Dec 9
First Quarter
Dec 17
Full
Dec 25
Last Quarter
Jan 1
New

Hourly Weather History & Observations

Time (EST) Temp. Windchill Dew Point Humidity Pressure Visibility Wind Dir Wind Speed Gust Speed Precip Events Conditions
12:50 AM 28.4 °F 22.2 °F 21.2 °F 74% 30.35 in 10.0 mi West 5.8 mph - 0.00 in   Overcast
12:53 AM 28.0 °F 21.7 °F 21.9 °F 78% 30.38 in 10.0 mi West 5.8 mph - 0.00 in   Overcast
1:09 AM 28.4 °F 22.2 °F 21.2 °F 74% 30.34 in 10.0 mi WNW 5.8 mph - N/A   Overcast
1:53 AM 28.0 °F 20.8 °F 19.9 °F 72% 30.38 in 10.0 mi NW 6.9 mph - N/A   Overcast
2:12 AM 28.4 °F 19.1 °F 19.4 °F 69% 30.36 in 10.0 mi NW 10.4 mph - N/A   Overcast
2:53 AM 28.0 °F 20.0 °F 18.0 °F 66% 30.41 in 10.0 mi NW 8.1 mph - N/A   Overcast
3:04 AM 26.6 °F 17.5 °F 17.6 °F 69% 30.39 in 10.0 mi NW 9.2 mph - N/A   Overcast
3:53 AM 27.0 °F 16.1 °F 17.1 °F 66% 30.43 in 10.0 mi NNW 12.7 mph - N/A   Overcast
4:53 AM 26.1 °F 15.6 °F 16.0 °F 66% 30.46 in 10.0 mi NNW 11.5 mph 20.7 mph N/A   Overcast
5:53 AM 24.1 °F 13.7 °F 14.0 °F 65% 30.49 in 10.0 mi NW 10.4 mph - N/A   Overcast
6:53 AM 24.1 °F 14.4 °F 14.0 °F 65% 30.52 in 10.0 mi NW 9.2 mph - N/A   Overcast
7:53 AM 24.1 °F 14.4 °F 12.9 °F 62% 30.53 in 10.0 mi NNW 9.2 mph - N/A   Overcast
8:53 AM 24.1 °F 16.0 °F 14.0 °F 65% 30.56 in 10.0 mi North 6.9 mph - N/A   Overcast
9:53 AM 25.0 °F 16.3 °F 12.9 °F 60% 30.58 in 10.0 mi NW 8.1 mph - N/A   Overcast
10:00 AM 24.8 °F 15.3 °F 12.2 °F 59% 30.54 in 10.0 mi NNW 9.2 mph - N/A   Overcast
10:16 AM 24.8 °F 16.1 °F 12.2 °F 59% 30.55 in 10.0 mi NW 8.1 mph - N/A   Overcast
10:53 AM 25.0 °F 15.5 °F 12.9 °F 60% 30.59 in 10.0 mi WNW 9.2 mph - N/A   Overcast
11:53 AM 25.0 °F 13.1 °F 12.9 °F 60% 30.59 in 10.0 mi NNW 13.8 mph - N/A   Overcast
12:53 PM 25.0 °F 13.1 °F 12.0 °F 58% 30.58 in 10.0 mi NW 13.8 mph - N/A   Overcast
1:53 PM 25.0 °F 15.5 °F 12.9 °F 60% 30.57 in 10.0 mi NNW 9.2 mph - N/A   Overcast
2:53 PM 26.1 °F 16.8 °F 12.9 °F 58% 30.57 in 10.0 mi NW 9.2 mph - N/A   Overcast
3:33 PM 24.8 °F 17.9 °F 12.2 °F 59% 30.53 in 10.0 mi NW 5.8 mph - N/A   Scattered Clouds
3:53 PM 26.1 °F 19.4 °F 12.9 °F 58% 30.57 in 10.0 mi WNW 5.8 mph - N/A   Mostly Cloudy
4:53 PM 24.1 °F 17.0 °F 12.9 °F 62% 30.59 in 10.0 mi NW 5.8 mph - N/A   Mostly Cloudy
5:03 PM 23.0 °F 17.0 °F 12.2 °F 63% 30.56 in 10.0 mi NW 4.6 mph - N/A   Scattered Clouds
5:53 PM 21.9 °F - 12.0 °F 66% 30.60 in 10.0 mi Calm Calm - N/A   Scattered Clouds
6:53 PM 19.0 °F 11.1 °F 12.0 °F 74% 30.61 in 10.0 mi SW 5.8 mph - N/A   Clear
7:53 PM 18.0 °F 11.1 °F 12.0 °F 78% 30.61 in 10.0 mi SW 4.6 mph - N/A   Scattered Clouds
8:53 PM 21.9 °F 15.7 °F 12.9 °F 68% 30.62 in 10.0 mi SW 4.6 mph - N/A   Overcast
9:53 PM 21.0 °F 13.4 °F 12.9 °F 71% 30.62 in 10.0 mi SW 5.8 mph - N/A   Overcast
10:53 PM 21.0 °F 16.2 °F 14.0 °F 74% 30.62 in 10.0 mi SW 3.5 mph - N/A   Overcast
11:53 PM 21.9 °F 14.5 °F 14.0 °F 72% 30.61 in 10.0 mi SW 5.8 mph - N/A   Overcast